Bogalusa, LA

11:32 AM CST on January 20, 2018 (GMT -0600)
Carr Memorial

Weather History for KBXA - January, 2013

Change the Weather History Date:

Thursday, January 3, 2013

  Actual Average Record
Temperature  
Mean Temperature 40 °F -  
Max Temperature 49 °F 58 °F 76 °F (2015)
Min Temperature 31 °F 38 °F 28 °F (2014)
Degree Days  
Heating Degree Days 25    
Moisture  
Dew Point 31 °F    
Average Humidity 77    
Maximum Humidity 100    
Minimum Humidity 34    
Precipitation  
Precipitation 0.01 in - - ()
Sea Level Pressure  
Sea Level Pressure 30.33 in    
Wind  
Wind Speed 7 mph (North)    
Max Wind Speed 13 mph    
Max Gust Speed 16 mph    
Visibility 9 miles    
Events Rain    
Averages and records for this station are not official NWS values.
T = Trace of Precipitation, MM = Missing Value Source: NWS Daily Summary

Daily Weather History Graph

Daily Weather History Graph

Search for Another Location

Airport or City:

Trip Planner

Search our weather history database for the weather conditions in past years. The results will help you decide how hot, cold, wet, or windy it might be!

Date:

Astronomy

Jan. 03, 2013 Rise Set
Actual Time 6:57 AM CST 5:10 PM CST
Civil Twilight 6:31 AM CST 5:37 PM CST
Nautical Twilight 6:01 AM CST 6:07 PM CST
Astronomical Twilight 5:31 AM CST 6:36 PM CST
Moon 11:17 PM CST (1/3) 10:35 AM CST (1/3)
Length of Visible Light 11h 05m
Length of Day
10h 13m
Waning Gibbous, 65% of the Moon is Illuminated
Jan 3
Waning Gibbous
Jan 4
Last Quarter
Jan 11
New
Jan 18
First Quarter
Jan 26
Full

Hourly Weather History & Observations

Time (CST) Temp. Windchill Dew Point Humidity Pressure Visibility Wind Dir Wind Speed Gust Speed Precip Events Conditions
12:15 AM 39.9 °F 35.1 °F 39.9 °F 100% 30.27 in 5.0 mi North 6.9 mph - 0.01 in Rain Rain
12:35 AM 39.6 °F 35.4 °F 39.6 °F 100% 30.26 in 5.0 mi North 5.8 mph - 0.01 in   Drizzle
1:15 AM 39.6 °F 34.7 °F 39.6 °F 100% 30.25 in 4.0 mi North 6.9 mph - 0.01 in   Light Drizzle
1:35 AM 39.4 °F 34.5 °F 39.4 °F 100% 30.24 in 5.0 mi NNE 6.9 mph - 0.01 in   Mist
1:55 AM 39.4 °F 33.8 °F 39.4 °F 100% 30.24 in 4.0 mi North 8.1 mph - 0.01 in   Mist
2:15 AM 39.2 °F 35.0 °F 39.2 °F 100% 30.24 in 4.0 mi NNE 5.8 mph - N/A   Light Drizzle
2:35 AM 39.4 °F 33.2 °F 39.4 °F 100% 30.25 in 4.0 mi North 9.2 mph - N/A Rain Light Rain
2:55 AM 39.2 °F 33.6 °F 39.2 °F 100% 30.26 in 5.0 mi North 8.1 mph - N/A   Mist
3:15 AM 38.8 °F 33.8 °F 38.8 °F 100% 30.26 in 5.0 mi NNE 6.9 mph - N/A   Mist
3:35 AM 38.8 °F 33.2 °F 38.8 °F 100% 30.26 in 5.0 mi North 8.1 mph - N/A   Mist
3:55 AM 38.7 °F 34.3 °F 38.7 °F 100% 30.26 in 5.0 mi North 5.8 mph - N/A   Mist
4:15 AM 38.5 °F 33.4 °F 38.5 °F 100% 30.27 in 7.0 mi North 6.9 mph - N/A   Unknown
4:35 AM 38.3 °F 33.9 °F 38.3 °F 100% 30.27 in 5.0 mi NNE 5.8 mph - N/A   Mist
4:55 AM 38.3 °F 32.5 °F 38.3 °F 100% 30.27 in 7.0 mi North 8.1 mph - N/A   Unknown
5:15 AM 37.9 °F 32.1 °F 37.9 °F 100% 30.29 in 7.0 mi North 8.1 mph - N/A   Unknown
5:35 AM 37.8 °F 33.3 °F 37.8 °F 100% 30.30 in 7.0 mi North 5.8 mph - N/A   Unknown
5:55 AM 37.6 °F 32.3 °F 37.6 °F 100% 30.30 in 7.0 mi North 6.9 mph - N/A   Unknown
6:15 AM 37.4 °F 32.8 °F 37.4 °F 100% 30.31 in 7.0 mi North 5.8 mph - N/A   Unknown
6:35 AM 36.9 °F 33.1 °F 36.9 °F 100% 30.30 in 7.0 mi NNE 4.6 mph - N/A   Unknown
6:55 AM 36.9 °F 32.2 °F 36.9 °F 100% 30.31 in 7.0 mi North 5.8 mph - N/A   Unknown
7:15 AM 36.7 °F 32.0 °F 36.7 °F 100% 30.31 in 5.0 mi North 5.8 mph - N/A   Mist
7:35 AM 36.5 °F 30.3 °F 35.6 °F 97% 30.31 in 7.0 mi North 8.1 mph - N/A   Unknown
7:55 AM 36.7 °F 30.5 °F 29.8 °F 76% 30.33 in 10.0 mi NNE 8.1 mph - N/A   Unknown
8:15 AM 37.4 °F 30.8 °F 28.9 °F 71% 30.34 in 10.0 mi NNE 9.2 mph - N/A   Unknown
8:35 AM 37.4 °F 31.4 °F 27.3 °F 67% 30.35 in 10.0 mi North 8.1 mph - N/A   Unknown
8:55 AM 38.1 °F 31.7 °F 27.0 °F 64% 30.35 in 10.0 mi North 9.2 mph - N/A   Unknown
9:15 AM 38.7 °F 31.8 °F 26.8 °F 62% 30.36 in 10.0 mi North 10.4 mph 16.1 mph N/A   Unknown
9:35 AM 39.4 °F 33.8 °F 27.0 °F 61% 30.36 in 10.0 mi North 8.1 mph - N/A   Unknown
9:55 AM 39.6 °F 33.0 °F 25.0 °F 56% 30.36 in 10.0 mi North 10.4 mph - N/A   Unknown
10:15 AM 39.4 °F 32.7 °F 25.9 °F 58% 30.36 in 10.0 mi North 10.4 mph - N/A   Unknown
10:35 AM 39.7 °F 33.7 °F 25.3 °F 56% 30.36 in 10.0 mi North 9.2 mph - N/A   Unknown
10:55 AM 40.3 °F 33.4 °F 24.3 °F 53% 30.35 in 10.0 mi North 11.5 mph - N/A   Unknown
11:15 AM 41.9 °F 36.9 °F 25.3 °F 52% 30.35 in 10.0 mi North 8.1 mph - N/A   Unknown
11:35 AM 41.9 °F 38.2 °F 23.0 °F 47% 30.34 in 10.0 mi North 5.8 mph 11.5 mph N/A   Unknown
11:55 AM 42.4 °F 36.5 °F 22.5 °F 45% 30.34 in 10.0 mi North 10.4 mph - N/A   Unknown
12:15 PM 42.6 °F 36.3 °F 21.6 °F 43% 30.34 in 10.0 mi North 11.5 mph - N/A   Unknown
12:35 PM 43.0 °F 36.4 °F 21.4 °F 42% 30.32 in 10.0 mi North 12.7 mph - N/A   Unknown
12:55 PM 43.7 °F 39.1 °F 22.1 °F 42% 30.31 in 10.0 mi NNE 8.1 mph - N/A   Unknown
1:15 PM 45.3 °F 41.1 °F 22.8 °F 41% 30.30 in 10.0 mi North 8.1 mph - N/A   Unknown
1:35 PM 45.7 °F 40.6 °F 21.9 °F 39% 30.29 in 10.0 mi North 10.4 mph - N/A   Unknown
2:15 PM 48.2 °F - 22.5 °F 36% 30.29 in 10.0 mi North 10.4 mph 16.1 mph N/A   Unknown
2:35 PM 49.1 °F - 21.7 °F 34% 30.29 in 10.0 mi NNE 12.7 mph 16.1 mph N/A   Unknown
2:55 PM 49.6 °F - 25.3 °F 39% 30.28 in 10.0 mi North 10.4 mph - N/A   Unknown
3:15 PM 49.5 °F - 23.4 °F 36% 30.29 in 10.0 mi NNE 9.2 mph 16.1 mph N/A   Unknown
3:35 PM 49.3 °F - 23.4 °F 36% 30.30 in 10.0 mi NNE 12.7 mph - N/A   Unknown
3:55 PM 48.7 °F - 23.9 °F 38% 30.31 in 10.0 mi North 9.2 mph - N/A   Unknown
4:35 PM 47.3 °F - 26.6 °F 45% 30.32 in 10.0 mi North 5.8 mph - N/A   Unknown
4:55 PM 45.7 °F 42.0 °F 26.2 °F 47% 30.33 in 10.0 mi North 6.9 mph - N/A   Unknown
5:15 PM 43.3 °F 40.7 °F 26.1 °F 51% 30.33 in 10.0 mi North 4.6 mph - N/A   Unknown
5:35 PM 40.1 °F - 30.0 °F 67% 30.34 in 10.0 mi Calm Calm - N/A   Unknown
6:15 PM 37.2 °F - 32.2 °F 82% 30.36 in 10.0 mi Calm Calm - N/A   Unknown
6:35 PM 35.6 °F 32.8 °F 35.6 °F 100% 30.36 in 10.0 mi North 3.5 mph - N/A   Unknown
6:55 PM 34.7 °F - 34.7 °F 100% 30.37 in 10.0 mi Calm Calm - N/A   Unknown
7:15 PM 34.9 °F 32.0 °F 34.9 °F 100% 30.38 in 10.0 mi North 3.5 mph - N/A   Unknown
7:35 PM 33.8 °F 29.6 °F 33.8 °F 100% 30.38 in 10.0 mi North 4.6 mph - N/A   Unknown
7:55 PM 34.2 °F - 34.2 °F 100% 30.38 in 10.0 mi Calm Calm - N/A   Unknown
8:15 PM 34.0 °F 29.8 °F 34.0 °F 100% 30.39 in 10.0 mi North 4.6 mph - N/A   Unknown
8:35 PM 34.0 °F - 33.6 °F 99% 30.40 in 10.0 mi Calm Calm - N/A   Unknown
8:55 PM 33.3 °F 30.2 °F 28.9 °F 84% 30.41 in 10.0 mi North 3.5 mph - N/A   Unknown
9:15 PM 32.7 °F 28.3 °F 32.7 °F 100% 30.41 in 10.0 mi North 4.6 mph - N/A   Unknown
9:35 PM 33.8 °F 29.6 °F 28.6 °F 81% 30.41 in 10.0 mi North 4.6 mph - N/A   Unknown
9:55 PM 35.1 °F 31.0 °F 26.8 °F 72% 30.40 in 10.0 mi North 4.6 mph - N/A   Unknown
10:15 PM 33.3 °F 28.9 °F 27.7 °F 80% 30.41 in 10.0 mi North 4.6 mph - N/A   Unknown
10:35 PM 34.7 °F - 27.1 °F 74% 30.41 in 10.0 mi Calm Calm - N/A   Unknown
10:55 PM 33.1 °F - 28.2 °F 82% 30.41 in 10.0 mi Calm Calm - N/A   Unknown
11:15 PM 32.0 °F - 32.0 °F 100% 30.41 in 10.0 mi Calm Calm - N/A   Unknown
11:35 PM 31.6 °F 26.0 °F 31.6 °F 100% 30.41 in 10.0 mi North 5.8 mph - N/A   Unknown
11:55 PM 32.0 °F 27.5 °F 28.6 °F 87% 30.41 in 10.0 mi North 4.6 mph - N/A   Unknown